DIAMANT B-P4 DEB

Satellite information

Favourite Embed

Satellite Type and Status

DEBRISIN ORBIT

Key statistics

Satellite DIAMANT B-P4 DEB at a glance.

Uptime

18415

Days in orbit

Revolutions

≈ 14.0

Per day

Orbit

LEO

Low Earth Orbit

Inclination

49.8

Latest

Satellite identification and parameters

Extended collection of information and parameters for DIAMANT B-P4 DEB.

Object identification

Identified? True

Debris? True

Object name: DIAMANT B-P4 DEB

International designator: 1975-010C

Object number (NORAD): 7654

Object ID (CCSDS): 7654

Country: FRANCE (FR)

Current information (Y/N): Y

RCS size: SMALL

Orbital parameters

Period: 103.18 minutes

Inclination: 49.8435 deg

SMA: 7287.162 km

Apoapsis: 1034.767 km

Periapsis: 783.287 km

RAAN: 133.7103 deg

Eccentricy: 0.017255

Argument of periapsis: 15.0232 deg

Mean anomaly: 345.5703 deg

Mean motion: 13.95613505 rev/day

Mean motion (dot): 0.00000136 rev/day2

B* drag term: 0.0001838 1/REarth

Two-line elements (TLE)

Creation date: July 8, 2025, 2:27 a.m.

Reference frame: TEME

Reference center: EARTH

Epoch: July 7, 2025, 8:28 p.m. UTC

TLE line 0: 0 DIAMANT B-P4 DEB

TLE line 1: 1 07654U 75010C 25188.85300963 .00000136 00000-0 18380-3 0 9996

TLE line 2: 2 07654 49.8435 133.7103 0172550 15.0232 345.5703 13.95613505561869

Live tracking on map

Real-time ground track for satellite DIAMANT B-P4 DEB.

In-orbit conjunctions

A list of the most updated potential collisions computed for object DIAMANT B-P4 DEB.

Target Orbit TCA Probability of collision Miss distance Type
COSMOS 894 LEO 2024-06-02 01:50:24 0.000879311 390.0 (m) PAYLOAD

Associated space launch

Passive French satellite dedicated to geodetic and geophysical studies

DIAMANT B-P4 DEB was lifted into orbit during the mission ‘Diamant BP4 | Starlette’, on board a Diamant BP4 space rocket.

The launch took place on Feb. 6, 1975, 4:35 p.m. from Diamant Launch Area.

For more information about the launch, click the button.

Launch to space Diamant BP4 | Starlette
Diamant BP4 | Starlette

Agency: N/A

Status: Launch Successful

Launch date: Feb. 6, 1975, 4:35 p.m. UTC

Rocket: Diamant BP4

Launch pad: Diamant Launch Area

Location: Guiana Space Centre, French Guiana

...

Latest news about this satellite

There are no fresh news available about this satellite. Check back as we update our databases every day.


Newsletter sign-up

Weekly statistics, charts and insights to help you stay on top of the space industry.